Location: Valencia
(39.4670°N, 0.3670°W)
Time: 08:49:11
(UTC+02:00)

ISS - Pass Details

Date: 09 July 2017
Orbit: 400 x 408 km, 51.6° (Epoch: 21 July)

Event Time Altitude Azimuth Distance (km) Brightness Sun altitude
Exits shadow 04:24:59 44° 113° (ESE) 567 -3.1 -20.3°
Drops below altitude 10° 04:27:45 10° 63° (ENE) 1,454 -0.1 -20.0°
Sets 04:29:52 0° 57° (ENE) 2,318 1.3 -19.7°
